Temp
-15 -15 -15 -15 -15 -14 -14 -15 -15 -15 -15 -15 -15 -15 -15 -16 -16 -16 -16 -16 -16 -17 -17 -17 -17 -17 -17 -17 -17 -17 -17 -17 -17 -17 -17 -16 -17 -17 -17 -17 -16 -16 -16 -16
-16 -15 -15 -15 -14 -14 -14 -14 -14 -14 -15 -15 -15 -15 -15 -15 -15 -15 -16 -16 -16 -16 -16 -16 -17 -17 -17 -17 -17 -17 -16 -16 -16 -16 -16 -17 -16 -16 -16 -16 -15 -16 -16 -15
-14 -14 -14 -14 -14 -14 -14 -14 -14 -14 -14 -14 -14 -15 -15 -15 -15 -15 -16 -16 -16 -16 -16 -16 -16 -16 -16 -16 -16 -16 -16 -16 -16 -16 -16 -16 -15 -15 -16 -16 -15 -15 -15 -15
-13 -14 -14 -14 -14 -14 -14 -14 -14 -14 -14 -14 -14 -14 -14 -15 -15 -15 -15 -15 -15 -15 -15 -15 -16 -16 -16 -16 -16 -16 -16 -16 -16 -16 -16 -16 -16 -16 -16 -16 -16 -16 -15 -15
-14 -14 -14 -14 -14 -14 -14 -14 -13 -14 -14 -14 -14 -15 -14 -15 -15 -15 -15 -15 -15 -15 -15 -15 -15 -16 -16 -16 -16 -16 -16 -16 -16 -16 -16 -16 -16 -16 -16 -16 -16 -16 -16 -15
-13 -13 -13 -14 -14 -14 -14 -14 -14 -14 -14 -14 -14 -15 -15 -15 -15 -15 -15 -15 -15 -15 -16 -16 -16 -16 -16 -16 -16 -16 -16 -16 -16 -16 -16 -16 -16 -16 -16 -16 -16 -16 -15 -15
-12 -12 -13 -13 -13 -14 -14 -14 -15 -15 -15 -15 -14 -14 -15 -15 -15 -15 -15 -15 -15 -15 -16 -16 -16 -16 -16 -16 -16 -16 -16 -17 -17 -17 -17 -17 -17 -17 -16 -16 -16 -16 -16 -16
-12 -12 -11 -12 -11 -12 -13 -14 -15 -14 -14 -15 -15 -14 -14 -15 -15 -15 -15 -16 -16 -16 -16 -17 -17 -17 -17 -17 -17 -17 -18 -18 -18 -18 -17 -17 -17 -17 -16 -16 -16 -15 -15 -16
-12 -12 -12 -12 -12 -12 -12 -12 -14 -15 -15 -15 -15 -15 -15 -15 -15 -15 -16 -16 -16 -17 -17 -17 -18 -18 -18 -19 -19 -19 -19 -19 -18 -18 -18 -18 -17 -17 -17 -17 -16 -16 -16 -16
-13 -13 -13 -13 -13 -12 -12 -12 -12 -13 -14 -15 -16 -16 -16 -16 -16 -16 -16 -16 -17 -17 -18 -18 -18 -19 -19 -19 -20 -20 -20 -19 -19 -19 -19 -19 -18 -18 -18 -17 -17 -17 -17 -17
-13 -13 -13 -13 -13 -13 -13 -13 -13 -13 -13 -13 -14 -16 -16 -17 -17 -17 -17 -17 -18 -18 -18 -19 -19 -19 -20 -20 -20 -20 -20 -20 -20 -20 -20 -19 -19 -19 -19 -19 -19 -19 -19 -19
-13 -13 -13 -13 -13 -13 -13 -13 -13 -13 -13 -13 -14 -14 -15 -16 -17 -17 -17 -18 -18 -19 -19 -20 -20 -21 -21 -21 -21 -21 -21 -22 -21 -21 -21 -21 -21 -21 -21 -21 -21 -20 -20 -19
-13 -13 -13 -13 -13 -14 -14 -14 -14 -14 -14 -14 -14 -15 -15 -15 -15 -15 -16 -17 -18 -19 -20 -21 -21 -22 -22 -22 -22 -23 -23 -23 -23 -23 -22 -22 -22 -22 -22 -22 -21 -20 -20 -20
-13 -13 -13 -14 -14 -14 -14 -14 -14 -14 -14 -15 -15 -15 -15 -15 -16 -16 -16 -16 -18 -19 -20 -22 -22 -23 -23 -23 -23 -24 -23 -23 -23 -23 -23 -23 -23 -22 -22 -21 -22 -23 -24 -23
-13 -13 -14 -14 -14 -14 -14 -14 -15 -15 -15 -15 -15 -15 -15 -15 -16 -16 -17 -17 -18 -20 -21 -23 -23 -23 -24 -24 -24 -24 -24 -24 -24 -23 -23 -23 -23 -23 -23 -23 -23 -24 -24 -25
-13 -14 -14 -14 -14 -14 -15 -15 -15 -15 -15 -16 -16 -16 -16 -16 -16 -16 -17 -18 -19 -20 -22 -23 -23 -23 -24 -24 -25 -25 -24 -24 -24 -24 -24 -24 -24 -24 -25 -25 -25 -25 -26 -26
-14 -14 -14 -14 -14 -15 -15 -15 -15 -16 -16 -16 -16 -16 -17 -17 -17 -17 -18 -19 -20 -21 -22 -23 -24 -24 -24 -25 -25 -25 -24 -24 -24 -24 -25 -24 -25 -25 -26 -26 -26 -27 -27 -27
-14 -14 -15 -15 -15 -15 -15 -16 -16 -16 -16 -16 -16 -17 -17 -18 -18 -18 -18 -19 -21 -22 -23 -24 -24 -24 -25 -25 -25 -25 -25 -24 -24 -25 -25 -26 -26 -26 -27 -27 -27 -28 -28 -29
-14 -15 -15 -15 -16 -16 -16 -16 -16 -17 -17 -17 -17 -17 -18 -18 -18 -19 -19 -20 -21 -22 -23 -24 -25 -25 -25 -25 -25 -25 -25 -25 -25 -25 -26 -26 -27 -27 -27 -28 -28 -28 -29 -29
-14 -14 -15 -15 -15 -16 -16 -16 -16 -17 -17 -17 -18 -18 -18 -18 -19 -19 -19 -20 -21 -22 -24 -25 -25 -26 -25 -25 -25 -25 -25 -25 -25 -26 -26 -27 -27 -27 -27 -28 -28 -28 -29 -30
-14 -14 -15 -15 -16 -16 -16 -16 -17 -17 -18 -18 -18 -19 -19 -19 -19 -19 -20 -21 -22 -23 -24 -25 -26 -25 -25 -25 -25 -25 -25 -25 -25 -26 -27 -27 -27 -27 -27 -28 -28 -28 -29 -30
-15 -15 -15 -15 -16 -16 -16 -16 -17 -17 -17 -18 -18 -19 -19 -19 -20 -20 -20 -21 -22 -22 -23 -23 -24 -25 -25 -25 -25 -25 -25 -25 -25 -26 -27 -27 -27 -27 -27 -27 -28 -28 -29 -30
-15 -16 -16 -16 -16 -16 -17 -17 -17 -17 -17 -18 -18 -19 -19 -20 -20 -20 -21 -21 -22 -23 -23 -23 -24 -25 -25 -24 -25 -25 -25 -25 -25 -26 -27 -27 -27 -27 -27 -27 -28 -28 -29 -30
-15 -16 -16 -16 -16 -16 -17 -17 -17 -18 -18 -18 -18 -19 -19 -20 -20 -20 -21 -21 -22 -23 -23 -23 -24 -24 -25 -24 -25 -25 -25 -25 -26 -26 -27 -27 -27 -27 -27 -27 -27 -28 -28 -29
-16 -16 -16 -17 -17 -17 -17 -17 -18 -18 -18 -18 -19 -19 -19 -20 -20 -21 -21 -21 -22 -23 -23 -24 -24 -24 -25 -24 -24 -25 -25 -25 -26 -26 -27 -27 -27 -27 -27 -27 -27 -27 -27 -28
-16 -16 -16 -17 -17 -18 -17 -17 -18 -18 -18 -19 -19 -19 -20 -20 -20 -21 -21 -21 -22 -23 -24 -24 -24 -25 -25 -24 -24 -25 -25 -25 -26 -26 -27 -27 -27 -27 -27 -27 -27 -27 -27 -27
-17 -17 -17 -17 -17 -18 -18 -18 -18 -19 -19 -19 -19 -19 -20 -20 -20 -21 -21 -22 -22 -24 -24 -24 -24 -25 -25 -24 -24 -25 -25 -25 -26 -26 -27 -27 -27 -27 -26 -26 -27 -27 -27 -27
Height
5705 5703 5701 5698 5696 5693 5691 5687 5684 5681 5676 5673 5670 5666 5663 5659 5655 5651 5648 5644 5640 5636 5633 5631 5628 5626 5625 5623 5622 5621 5620 5619 5618 5618 5617 5617 5617 5617 5617 5616 5616 5616 5615 5615
5705 5701 5698 5696 5693 5690 5687 5684 5681 5678 5675 5671 5667 5664 5661 5658 5654 5651 5648 5645 5641 5638 5635 5632 5629 5627 5625 5623 5621 5620 5618 5617 5617 5616 5616 5615 5614 5613 5612 5611 5611 5610 5608 5607
5703 5700 5696 5694 5690 5686 5684 5680 5678 5674 5671 5668 5665 5662 5658 5654 5651 5648 5646 5644 5641 5638 5636 5633 5630 5628 5626 5624 5622 5620 5618 5616 5615 5613 5612 5610 5609 5608 5607 5605 5603 5602 5600 5598
5698 5695 5693 5689 5685 5682 5678 5675 5672 5669 5668 5665 5662 5659 5655 5652 5648 5645 5642 5639 5637 5635 5632 5630 5628 5626 5623 5621 5619 5617 5615 5613 5611 5609 5607 5605 5603 5601 5599 5596 5594 5592 5590 5587
5689 5687 5688 5682 5678 5675 5672 5669 5666 5664 5662 5660 5658 5655 5652 5650 5646 5642 5639 5636 5633 5630 5627 5625 5622 5620 5618 5615 5613 5611 5608 5606 5603 5601 5598 5595 5593 5590 5587 5585 5582 5579 5575 5572
5683 5679 5676 5672 5669 5667 5664 5662 5659 5656 5654 5652 5650 5649 5645 5644 5641 5639 5636 5632 5629 5626 5622 5619 5616 5613 5611 5608 5605 5602 5599 5596 5593 5589 5586 5583 5579 5576 5572 5568 5565 5562 5558 5554
5683 5677 5674 5668 5662 5658 5656 5657 5652 5650 5647 5644 5641 5639 5637 5634 5632 5630 5628 5625 5622 5620 5617 5613 5609 5605 5601 5598 5594 5591 5587 5584 5580 5577 5573 5569 5565 5561 5557 5553 5549 5545 5541 5535
5682 5675 5670 5665 5658 5652 5648 5644 5642 5641 5640 5638 5634 5630 5627 5625 5622 5619 5617 5614 5612 5609 5606 5603 5600 5596 5592 5587 5583 5579 5575 5571 5567 5563 5559 5554 5550 5544 5539 5534 5529 5523 5517 5511
5679 5674 5668 5664 5658 5651 5644 5638 5634 5631 5629 5626 5624 5621 5618 5614 5612 5608 5605 5602 5599 5596 5593 5590 5587 5583 5579 5575 5571 5567 5563 5558 5552 5548 5543 5537 5531 5526 5519 5513 5507 5501 5495 5488
5676 5671 5666 5661 5655 5650 5644 5639 5633 5628 5624 5620 5618 5613 5608 5604 5600 5597 5594 5591 5587 5584 5580 5577 5573 5569 5565 5561 5557 5552 5547 5542 5537 5532 5526 5520 5513 5507 5499 5493 5486 5478 5470 5464
5673 5668 5663 5657 5652 5647 5642 5637 5632 5626 5621 5616 5610 5606 5602 5597 5592 5588 5584 5580 5577 5572 5568 5563 5559 5555 5551 5546 5541 5536 5531 5527 5522 5517 5511 5503 5494 5487 5480 5472 5464 5457 5450 5444
5668 5664 5658 5653 5649 5643 5637 5632 5627 5623 5618 5612 5607 5602 5597 5591 5587 5582 5577 5572 5567 5562 5557 5552 5547 5542 5537 5532 5526 5521 5516 5511 5505 5499 5491 5484 5478 5469 5460 5454 5446 5437 5429 5421
5662 5657 5653 5648 5643 5639 5634 5629 5624 5619 5615 5609 5604 5599 5594 5588 5582 5576 5570 5564 5558 5552 5547 5541 5535 5529 5523 5518 5513 5507 5501 5495 5488 5481 5474 5467 5461 5454 5448 5436 5426 5418 5410 5401
5655 5651 5646 5642 5638 5634 5629 5624 5619 5614 5609 5605 5600 5595 5589 5583 5576 5569 5561 5555 5548 5541 5535 5529 5523 5517 5511 5506 5499 5492 5485 5479 5472 5465 5459 5452 5446 5439 5430 5422 5414 5403 5390 5379
5645 5642 5638 5633 5629 5624 5621 5616 5611 5607 5602 5597 5592 5587 5581 5574 5568 5561 5553 5545 5537 5530 5523 5517 5511 5505 5498 5491 5484 5477 5471 5465 5458 5452 5446 5439 5432 5423 5413 5405 5394 5383 5372 5359
5635 5632 5629 5625 5620 5616 5611 5607 5603 5598 5593 5587 5582 5578 5572 5565 5558 5551 5544 5535 5527 5520 5512 5506 5499 5492 5485 5478 5472 5465 5458 5451 5445 5439 5432 5425 5417 5409 5401 5391 5379 5368 5355 5340
5625 5622 5619 5616 5611 5607 5602 5597 5594 5589 5584 5579 5573 5568 5561 5555 5548 5541 5533 5525 5516 5508 5501 5494 5486 5480 5473 5467 5461 5455 5447 5440 5433 5427 5420 5414 5406 5399 5391 5380 5369 5356 5341 5326
5615 5611 5608 5605 5602 5597 5592 5588 5584 5579 5575 5570 5564 5557 5551 5544 5537 5530 5523 5515 5506 5497 5489 5482 5475 5469 5463 5457 5451 5444 5437 5430 5424 5416 5410 5404 5397 5390 5381 5371 5359 5346 5333 5316
5603 5600 5597 5593 5590 5586 5582 5577 5573 5569 5564 5559 5554 5547 5541 5535 5527 5520 5513 5505 5496 5487 5479 5472 5466 5459 5453 5448 5441 5434 5428 5421 5414 5407 5401 5395 5389 5382 5374 5364 5352 5339 5325 5309
5593 5589 5586 5582 5579 5576 5571 5567 5563 5559 5554 5548 5543 5537 5531 5525 5518 5511 5503 5496 5487 5477 5468 5462 5456 5450 5445 5439 5433 5426 5420 5413 5406 5399 5393 5389 5383 5376 5368 5358 5347 5334 5320 5304
5582 5578 5574 5571 5567 5564 5560 5556 5552 5547 5542 5538 5532 5527 5521 5515 5508 5501 5494 5486 5478 5469 5459 5452 5447 5443 5438 5432 5425 5419 5413 5406 5399 5393 5388 5384 5378 5372 5364 5354 5343 5330 5317 5302
5567 5564 5561 5558 5555 5551 5548 5545 5541 5536 5531 5526 5521 5516 5510 5504 5497 5491 5485 5478 5470 5462 5453 5447 5442 5436 5431 5425 5419 5413 5406 5400 5393 5387 5383 5379 5374 5368 5361 5352 5341 5329 5316 5304
5554 5551 5549 5546 5543 5540 5536 5533 5529 5525 5520 5515 5511 5505 5500 5494 5487 5481 5475 5468 5462 5456 5448 5442 5436 5430 5425 5419 5413 5406 5400 5393 5387 5382 5379 5375 5371 5366 5359 5351 5342 5330 5319 5307
5542 5538 5535 5532 5530 5527 5523 5519 5517 5512 5509 5504 5499 5494 5489 5483 5477 5471 5465 5459 5453 5448 5442 5435 5429 5425 5419 5412 5406 5400 5394 5387 5381 5377 5375 5372 5368 5363 5357 5350 5341 5331 5322 5311
5526 5524 5522 5519 5517 5513 5509 5505 5504 5499 5496 5492 5488 5483 5478 5472 5466 5460 5455 5449 5443 5438 5433 5427 5422 5417 5412 5406 5400 5394 5388 5381 5375 5372 5370 5368 5364 5361 5355 5350 5343 5334 5326 5318
5511 5509 5507 5505 5503 5500 5495 5492 5491 5487 5484 5479 5476 5471 5466 5460 5455 5449 5444 5439 5433 5429 5424 5419 5414 5409 5405 5400 5394 5388 5382 5376 5370 5367 5366 5364 5362 5358 5354 5350 5344 5336 5330 5323
5495 5493 5492 5490 5488 5485 5481 5479 5477 5474 5471 5467 5464 5459 5454 5449 5444 5438 5433 5428 5423 5418 5414 5410 5405 5401 5397 5392 5387 5381 5376 5371 5365 5363 5362 5361 5359 5356 5353 5350 5345 5338 5333 5327
Wind_Speed
21 19 16 17 17 17 15 15 14 15 16 16 16 16 16 18 18 17 17 19 19 18 17 15 15 13 11 10 6 5 10 14 14 15 13 12 11 12 13 15 18 20 22 25
13 19 20 20 20 19 19 21 20 20 20 19 18 18 18 18 18 18 18 17 16 17 16 16 16 15 15 14 13 12 12 12 13 16 15 18 18 20 22 22 27 30 30 32
11 15 16 18 19 21 22 21 22 22 22 21 21 20 20 19 18 19 19 18 17 16 15 16 16 17 16 17 17 17 18 18 19 20 21 22 24 26 27 29 31 33 35 37
15 15 15 18 21 21 23 23 23 24 23 25 23 24 23 22 21 20 19 19 19 19 18 18 18 19 20 21 21 22 23 23 24 25 26 28 29 30 32 33 35 37 40 42
29 25 20 21 22 23 19 24 24 24 25 25 26 27 27 26 26 25 24 23 23 23 23 23 23 23 23 24 25 26 27 28 29 30 32 34 36 38 40 42 44 47 49 51
23 23 21 27 28 23 27 26 22 22 22 23 26 27 30 30 31 31 32 32 31 29 29 29 29 29 30 31 32 33 35 36 37 38 39 41 43 45 47 49 52 55 57 60
24 24 19 22 24 29 30 30 27 27 24 23 25 28 29 31 32 34 35 36 38 38 38 38 38 38 38 38 39 39 39 39 40 41 43 45 47 48 49 51 53 57 61 65
27 29 30 26 26 23 21 24 28 29 30 29 30 31 32 33 34 34 35 38 41 43 44 44 44 43 42 41 42 42 43 46 46 47 48 49 52 54 57 59 63 66 68 71
27 26 30 29 28 27 25 22 21 24 31 32 33 36 37 38 38 38 37 38 40 42 45 47 49 49 49 48 50 49 49 49 50 52 53 55 57 59 61 65 68 71 73 74
26 27 27 29 29 29 27 25 26 24 24 29 33 36 35 36 37 38 41 43 44 44 45 47 48 49 50 53 53 53 55 56 55 55 56 58 60 63 67 70 74 76 76 74
28 29 29 30 29 30 30 30 29 27 26 26 27 31 35 35 33 33 35 37 40 43 45 47 49 50 50 50 49 50 52 53 53 54 56 61 66 70 72 72 71 71 71 72
29 29 31 31 30 30 31 31 31 29 29 28 27 26 27 29 31 35 35 36 39 42 43 44 46 48 49 49 50 51 51 51 54 58 64 67 66 63 65 64 65 67 70 72
30 31 30 31 33 32 31 30 28 29 30 29 29 27 23 24 25 27 31 36 40 43 45 46 47 47 48 48 50 54 57 58 57 59 62 59 57 56 56 60 64 65 67 69
33 31 31 30 30 32 30 29 28 30 30 27 27 27 29 30 28 30 31 35 40 42 44 45 46 47 52 54 54 56 57 57 59 57 53 51 52 53 54 57 58 56 61 67
37 33 32 31 32 32 33 31 31 33 33 33 32 33 33 34 35 35 36 38 40 44 47 48 50 53 56 53 52 55 57 55 52 50 47 48 50 52 51 53 56 61 65 69
39 37 35 34 34 32 33 34 33 32 32 33 32 33 34 35 38 41 42 42 44 46 49 51 53 54 55 54 50 47 49 45 44 43 45 47 48 47 47 52 57 61 65 68
39 40 38 36 35 35 35 35 35 35 34 34 35 34 34 37 39 42 45 47 49 49 49 48 46 47 48 47 45 48 46 42 42 43 43 45 41 40 45 50 54 57 62 65
38 40 42 41 39 36 37 37 37 37 36 38 37 37 37 37 40 44 47 50 51 53 52 49 46 46 46 46 48 46 43 42 42 41 41 37 35 39 43 46 50 55 61 64
37 37 39 39 41 38 38 39 38 38 37 38 39 39 39 39 41 44 48 50 52 54 53 47 46 43 40 44 43 40 41 41 40 39 34 31 32 36 38 43 48 54 61 63
40 38 38 37 39 40 40 41 41 40 40 39 39 39 40 40 41 45 48 51 53 53 54 47 43 42 41 43 41 39 42 40 38 35 28 27 30 33 35 41 49 54 59 58
42 41 39 38 40 41 42 44 44 43 43 44 40 39 40 40 41 44 47 50 51 51 48 39 33 36 39 40 38 40 40 40 36 29 23 24 27 31 35 41 48 50 53 52
44 43 42 41 42 43 43 45 46 47 46 45 42 39 39 40 41 43 46 48 47 44 35 30 30 33 35 37 36 39 40 38 33 25 20 22 25 30 34 39 45 46 48 47
46 45 43 45 44 43 44 45 46 47 47 45 44 41 40 39 40 43 45 47 44 37 34 34 34 34 35 34 36 38 41 36 31 21 17 20 24 28 30 36 42 41 41 41
45 47 44 45 44 45 46 46 45 47 46 45 44 42 40 39 40 42 44 47 44 38 36 35 35 37 36 33 36 38 40 33 28 19 16 19 22 23 27 32 37 37 37 36
45 45 46 45 43 44 47 47 45 46 45 46 43 41 40 40 40 42 43 46 44 38 36 36 37 38 37 33 34 37 39 31 25 17 14 18 19 19 22 28 32 31 32 33
45 44 47 46 44 43 47 48 44 45 46 44 43 42 42 40 40 43 44 46 46 39 36 36 37 37 36 32 32 36 37 28 22 14 13 15 15 15 17 23 27 28 28 28
47 46 45 44 45 45 50 49 46 46 46 44 43 44 43 41 41 43 45 47 46 41 36 36 36 36 35 32 31 35 35 27 21 12 11 11 12 12 13 18 22 23 24 26
Wind_Direction
337 343 340 330 331 327 323 315 322 320 322 330 332 338 339 336 337 341 344 344 349 352 356 357 354 355 357 350 340 289 275 271 282 286 273 251 264 259 260 267 266 256 260 264
324 322 323 320 319 315 314 313 316 315 313 316 319 322 321 320 322 326 329 328 328 328 330 333 332 330 326 320 313 307 300 294 275 275 265 269 264 264 267 263 264 265 264 265
329 314 319 315 311 310 309 308 308 308 308 312 311 312 313 314 314 316 318 318 316 314 313 312 310 306 303 298 293 288 282 278 274 272 271 272 271 270 268 265 264 266 266 266
329 318 314 309 308 309 307 304 302 302 302 301 303 305 307 308 308 308 306 303 301 300 299 297 295 293 290 288 286 285 283 281 279 277 275 275 275 276 276 276 277 277 276 275
316 309 307 298 293 296 296 297 299 302 304 302 302 304 302 300 302 301 299 298 297 296 295 294 293 291 289 288 287 286 284 282 282 283 283 284 284 285 285 285 285 284 283 282
334 333 322 298 298 288 292 291 294 295 299 303 306 306 305 304 302 300 299 299 298 296 294 291 289 287 286 285 283 283 283 284 286 288 290 291 290 290 289 287 287 285 284 283
355 356 355 334 309 292 283 286 289 288 288 287 290 292 294 297 299 300 300 299 298 297 296 295 294 293 292 290 289 288 289 290 290 289 288 288 289 289 290 289 290 289 289 285
357 353 0 1 12 1 334 302 285 282 285 287 286 285 287 290 291 292 295 298 300 301 300 299 297 295 292 292 293 293 291 290 290 288 286 285 286 288 289 291 292 292 294 293
350 352 351 355 358 1 7 357 326 299 284 283 286 287 288 289 288 286 284 284 286 289 291 292 293 294 294 293 292 293 293 291 288 288 289 290 292 293 293 293 295 297 297 295
343 344 347 346 349 352 357 359 356 344 323 305 295 292 292 291 290 289 289 289 288 289 290 291 291 290 290 289 289 289 290 291 292 293 294 295 295 295 295 297 298 297 296 293
327 333 337 341 344 346 347 349 351 349 343 334 320 308 301 298 297 298 296 296 294 292 290 289 289 289 289 289 290 289 290 293 294 294 295 295 295 298 300 299 298 297 295 293
315 319 325 328 333 339 339 339 341 343 342 342 339 333 327 322 317 310 307 306 301 297 293 290 289 289 290 290 290 292 293 294 295 295 295 297 300 301 300 299 299 298 297 296
310 311 312 317 324 327 328 334 330 333 336 334 334 333 334 336 335 331 323 315 308 303 300 296 294 293 293 292 293 295 298 300 300 300 301 300 299 300 302 304 303 302 301 301
308 306 308 308 309 316 317 318 320 326 330 331 331 332 330 329 328 331 329 322 313 306 303 301 297 294 294 296 298 300 299 300 302 302 302 301 301 303 304 304 304 307 310 310
303 302 300 302 304 307 310 313 312 314 316 319 320 321 322 325 327 331 331 326 316 309 304 300 298 300 300 300 299 298 300 302 303 304 303 305 305 307 310 309 311 313 315 317
301 301 299 299 302 306 307 310 312 313 314 315 317 320 322 326 327 329 330 328 321 313 307 305 305 305 303 299 303 307 309 306 304 305 307 309 312 313 314 316 319 321 323 324
298 298 297 299 300 303 305 308 311 313 315 316 316 320 323 327 329 329 328 328 325 320 315 311 310 312 314 308 306 310 308 307 307 309 314 313 313 316 318 322 323 329 335 331
296 295 297 299 301 302 303 306 309 311 313 315 317 320 323 326 329 330 329 327 326 322 317 315 310 310 310 311 311 310 309 311 311 314 314 315 318 321 325 328 334 337 340 340
296 296 297 297 298 298 302 304 307 309 311 314 316 318 321 323 326 326 327 327 325 323 322 318 313 311 313 315 316 315 315 312 315 317 317 319 322 327 331 337 343 343 344 344
295 295 292 293 295 296 299 302 305 307 308 311 314 314 317 321 322 324 327 327 326 326 324 321 313 314 315 317 319 320 318 317 319 319 320 323 328 330 334 339 343 345 345 347
293 292 291 291 293 295 297 301 304 305 305 307 310 311 314 318 319 322 325 327 328 328 326 327 322 318 317 319 321 321 318 322 322 319 320 326 331 334 337 342 346 348 348 350
288 290 290 288 289 291 296 300 304 306 307 309 310 309 311 315 317 321 324 327 327 329 330 329 321 319 320 321 322 322 322 325 323 318 319 327 332 336 338 345 350 352 352 354
286 285 287 286 286 290 294 298 302 305 307 309 309 310 312 313 315 319 322 325 326 325 326 325 323 321 322 320 325 322 326 328 324 315 316 327 332 335 338 347 354 358 357 1
285 285 285 287 287 288 291 295 300 303 307 307 307 309 310 311 314 317 320 322 324 318 318 320 321 320 320 319 323 321 328 328 324 311 314 326 331 336 340 351 359 3 4 9
281 282 283 285 287 286 288 292 298 302 305 305 306 309 309 310 313 314 318 320 322 316 314 317 318 317 318 316 321 321 329 328 323 307 314 324 330 334 339 353 1 5 10 19
278 281 283 285 284 284 286 291 298 301 303 304 306 308 308 309 311 312 315 317 319 315 311 312 316 315 315 312 319 320 329 327 320 300 309 319 324 327 338 351 1 8 13 20
278 281 283 284 284 287 287 291 295 299 302 303 305 306 307 308 310 310 312 315 316 314 309 309 314 314 313 310 318 319 329 325 315 289 300 308 316 324 334 349 0 10 13 18